Location: Cerroniocc
(13.7547°S, 72.0222°W)
Time: 19:54:19
(UTC+00:00)

NOSS 3-3 (A) - Pass Details

Date: 05 July 2020
Orbit: 825 x 1387 km, 63.4° (Epoch: 07 August)

Event Time Altitude Azimuth Distance (km) Brightness Sun altitude
Rises 23:41:39 0° 195° (SSW) 3,547 6.9 -16.3°
Reaches altitude 10° 23:44:23 10° 188° (S) 2,542 6.1 -16.9°
Maximum altitude 23:49:51 43° 117° (ESE) 1,165 3.9 -18.2°
Drops below altitude 10° 23:55:02 10° 46° (NE) 2,416 5.8 -19.4°
Sets 23:57:34 0° 39° (NE) 3,353 6.6 -19.9°
